Bloomington, IL

4:51 PM CST on February 23, 2018 (GMT -0600)
Central Ill Regional

Weather History for KBMI - October, 2012

Change the Weather History Date:

Thursday, October 25, 2012

  Actual Average Record
Temperature  
Mean Temperature 58 °F -  
Max Temperature 75 °F 60 °F 77 °F (2004)
Min Temperature 41 °F 38 °F 26 °F (2013)
Degree Days  
Heating Degree Days 6    
Growing Degree Days 8 (Base 50)    
Moisture  
Dew Point 54 °F    
Average Humidity 85    
Maximum Humidity 97    
Minimum Humidity 64    
Precipitation  
Precipitation 0.61 in - - ()
Sea Level Pressure  
Sea Level Pressure 29.87 in    
Wind  
Wind Speed 21 mph (WSW)    
Max Wind Speed 32 mph    
Max Gust Speed 38 mph    
Visibility 8 miles    
Events Rain , Thunderstorm    
Averages and records for this station are not official NWS values.
T = Trace of Precipitation, MM = Missing Value Source: NWS Daily Summary

Daily Weather History Graph

Daily Weather History Graph

Search for Another Location

Airport or City:

Trip Planner

Search our weather history database for the weather conditions in past years. The results will help you decide how hot, cold, wet, or windy it might be!

Date:

Astronomy

Oct. 25, 2012 Rise Set
Actual Time 7:18 AM CDT 6:00 PM CDT
Civil Twilight 6:50 AM CDT 6:28 PM CDT
Nautical Twilight 6:18 AM CDT 7:00 PM CDT
Astronomical Twilight 5:46 AM CDT 7:32 PM CDT
Moon 3:47 PM CDT (10/25) 3:13 AM CDT (10/25)
Length of Visible Light 11h 38m
Length of Day
10h 42m
Waxing Gibbous, 84% of the Moon is Illuminated
Oct 25
Waxing Gibbous
Oct 29
Full
Nov 6
Last Quarter
Nov 13
New
Nov 20
First Quarter

Hourly Weather History & Observations

Time (CDT) Temp. Windchill Dew Point Humidity Pressure Visibility Wind Dir Wind Speed Gust Speed Precip Events Conditions
12:56 AM 63.9 °F - 59.9 °F 87% 29.86 in 10.0 mi South 13.8 mph - N/A   Clear
1:56 AM 63.9 °F - 59.9 °F 87% 29.84 in 10.0 mi South 18.4 mph - N/A   Clear
2:56 AM 63.9 °F - 59.9 °F 87% 29.82 in 10.0 mi South 20.7 mph - N/A   Clear
3:56 AM 61.9 °F - 59.9 °F 93% 29.82 in 10.0 mi South 19.6 mph - N/A   Clear
4:56 AM 61.9 °F - 59.9 °F 93% 29.83 in 10.0 mi South 18.4 mph - N/A   Clear
5:56 AM 61.9 °F - 59.0 °F 90% 29.83 in 10.0 mi South 18.4 mph - N/A   Clear
7:56 AM 61.9 °F - 59.0 °F 90% 29.83 in 10.0 mi South 20.7 mph - N/A   Clear
8:56 AM 64.9 °F - 59.0 °F 81% 29.83 in 10.0 mi SSW 23.0 mph - N/A   Clear
9:56 AM 68.9 °F - 59.9 °F 73% 29.80 in 10.0 mi SSW 29.9 mph - N/A   Clear
10:56 AM 72.0 °F - 61.0 °F 68% 29.80 in 10.0 mi SSW 26.5 mph 35.7 mph N/A   Clear
11:56 AM 74.8 °F - 61.9 °F 64% 29.76 in 10.0 mi SSW 32.2 mph 38.0 mph N/A   Scattered Clouds
12:56 PM 73.9 °F - 61.9 °F 66% 29.75 in 10.0 mi SSW 24.2 mph - N/A   Mostly Cloudy
1:56 PM 73.9 °F - 61.9 °F 66% 29.74 in 10.0 mi SSW 23.0 mph - N/A   Overcast
3:56 PM 75.9 °F - 63.0 °F 64% 29.73 in 10.0 mi SSW 21.9 mph - N/A   Scattered Clouds
4:56 PM 68.9 °F - 61.0 °F 76% 29.75 in 1.0 mi West 24.2 mph - 0.06 in Rain Light Rain
5:04 PM 60.8 °F - 59.0 °F 94% 29.80 in 1.0 mi West 28.8 mph - 0.28 in Rain Heavy Rain
5:09 PM 59.0 °F - 57.2 °F 94% 29.81 in 2.0 mi West 27.6 mph - 0.32 in Rain , Thunderstorm Light Thunderstorms and Rain
5:17 PM 57.2 °F - 55.4 °F 94% 29.83 in 2.0 mi WNW 28.8 mph - 0.32 in Rain , Thunderstorm Light Thunderstorms and Rain
5:26 PM 55.4 °F - 53.6 °F 94% 29.84 in 10.0 mi West 26.5 mph - 0.32 in   Overcast
5:56 PM 52.0 °F - 48.9 °F 89% 29.87 in 6.0 mi WNW 23.0 mph - 0.32 in Rain Light Rain
6:56 PM 47.8 °F - 45.0 °F 90% 29.93 in 10.0 mi WNW 23.0 mph - 0.00 in Rain Light Rain
7:56 PM 43.9 °F 35.9 °F 43.0 °F 97% 29.98 in 1.5 mi WNW 18.4 mph - 0.08 in Rain Heavy Rain
8:56 PM 43.0 °F 34.8 °F 41.0 °F 93% 30.00 in 1.5 mi NW 18.4 mph - 0.15 in Rain Rain
9:03 PM 42.8 °F 35.1 °F 41.0 °F 93% 30.02 in 4.0 mi NW 16.1 mph - 0.01 in Rain Rain
9:47 PM 42.8 °F 34.8 °F 41.0 °F 93% 30.05 in 8.0 mi NW 17.3 mph - 0.06 in Rain Light Rain
10:07 PM 42.8 °F 33.3 °F 39.2 °F 87% 30.04 in 10.0 mi NNW 24.2 mph - N/A   Overcast
10:56 PM 43.0 °F 34.0 °F 37.9 °F 82% 30.06 in 10.0 mi NNW 21.9 mph - N/A   Mostly Cloudy
11:56 PM 41.9 °F 32.8 °F 36.9 °F 82% 30.12 in 10.0 mi NW 20.7 mph - N/A   Overcast